Location: Newark
(49.8969°N, 3.3422°E)
Time: 17:11:06
(UTC+00:00)

Transit 2A Rocket - Visible Passes

Search period start: 20 January 2020 00:00
Search period end: 30 January 2020 00:00
Orbit: 593 x 910 km, 66.7° (Epoch: 19 January)

Date Brightness Start Highest point End Pass type
(mag) Time Alt. Az. Time Alt. Az. Time Alt. Az.
20 Jan 6.1 06:00:12 10° S 06:04:11 38° ESE 06:08:13 10° NE visible
21 Jan 7.0 05:18:32 10° SSE 05:21:52 22° ESE 05:25:14 10° ENE visible
22 Jan 7.6 04:37:45 10° SE 04:39:39 13° ESE 04:41:34 10° E visible
22 Jan 4.4 06:17:10 10° SW 06:21:28 87° NW 06:25:52 10° NE visible
23 Jan 5.2 05:34:47 10° SSW 05:38:59 55° ESE 05:43:15 10° NE visible
24 Jan 6.2 04:52:47 10° S 04:56:36 31° ESE 05:00:27 10° NE visible
24 Jan 5.0 06:35:00 10° WSW 06:39:02 39° NW 06:43:11 10° NNE visible
25 Jan 7.0 04:12:37 15° SE 04:14:19 18° ESE 04:17:19 10° ENE visible
25 Jan 4.5 05:52:36 13° SW 05:56:23 62° NW 06:00:45 10° NNE visible
26 Jan 7.6 03:32:16 10° ESE 03:32:16 10° ESE 03:32:41 10° E visible
26 Jan 4.5 05:12:14 38° SSW 05:13:49 79° ESE 05:18:12 10° NE visible
27 Jan 5.5 04:31:34 45° ESE 04:31:34 45° ESE 04:35:32 10° NE visible
27 Jan 5.4 06:11:31 17° W 06:14:03 30° NW 06:17:59 10° NNE visible
28 Jan 7.0 03:50:42 20° ENE 03:50:42 20° ENE 03:52:39 10° ENE visible
28 Jan 4.8 05:30:38 41° WNW 05:31:19 45° NW 05:35:36 10° NNE visible
29 Jan 4.9 04:49:37 53° NNE 04:49:37 53° NNE 04:53:07 10° NE visible
29 Jan 6.2 06:29:32 12° WNW 06:32:02 18° NNW 06:35:06 10° NNE visible
